Time,TemperatureF,DewpointF,PressureIn,WindDirection,WindDirectionDegrees,WindSpeedMPH,WindSpeedGustMPH,Humidity,HourlyPrecipIn,Conditions,Clouds,dailyrainin,SoftwareType,DateUTC
2013-01-20 00:09:00,44.4,40.0,29.93,NW,311,5.0,10.0,84,0.00,,,0.00,weatherlink.com 1.10,2013-01-20 05:09:00,
2013-01-20 00:24:00,44.4,40.0,29.92,WNW,300,5.0,12.0,84,0.00,,,0.00,weatherlink.com 1.10,2013-01-20 05:24:00,
2013-01-20 00:39:00,44.4,40.0,29.92,WNW,290,5.0,9.0,85,0.00,,,0.00,weatherlink.com 1.10,2013-01-20 05:39:00,
2013-01-20 00:54:00,44.4,40.0,29.91,West,266,5.0,8.0,85,0.00,,,0.00,weatherlink.com 1.10,2013-01-20 05:54:00,
2013-01-20 01:09:00,44.3,40.0,29.91,WNW,293,5.0,8.0,86,0.00,,,0.00,weatherlink.com 1.10,2013-01-20 06:09:00,
2013-01-20 01:24:00,44.1,40.0,29.90,West,263,5.0,7.0,85,0.00,,,0.00,weatherlink.com 1.10,2013-01-20 06:24:00,
2013-01-20 01:39:00,44.0,40.0,29.89,West,281,4.0,7.0,85,0.00,,,0.00,weatherlink.com 1.10,2013-01-20 06:39:00,
2013-01-20 01:54:00,43.8,40.0,29.89,WNW,301,3.0,6.0,85,0.00,,,0.00,weatherlink.com 1.10,2013-01-20 06:54:00,
2013-01-20 02:09:00,43.5,39.0,29.87,WNW,293,3.0,6.0,85,0.00,,,0.00,weatherlink.com 1.10,2013-01-20 07:09:00,
2013-01-20 02:24:00,43.6,39.0,29.87,WNW,293,3.0,7.0,85,0.00,,,0.00,weatherlink.com 1.10,2013-01-20 07:24:00,
2013-01-20 02:39:00,44.0,39.0,29.87,WNW,293,7.0,8.0,83,0.00,,,0.00,weatherlink.com 1.10,2013-01-20 07:39:00,
2013-01-20 02:54:00,-999.0,-99.9,29.86,North,-999,-999.0,-999.0,-999,0.00,,,0.00,weatherlink.com 1.10,2013-01-20 07:54:00,
2013-01-20 03:10:00,-999.0,-99.9,29.84,North,-999,-999.0,-999.0,-999,0.00,,,0.00,weatherlink.com 1.10,2013-01-20 08:10:00,
2013-01-20 03:25:00,-999.0,-99.9,29.84,North,-999,-999.0,-999.0,-999,0.00,,,0.00,weatherlink.com 1.10,2013-01-20 08:25:00,
2013-01-20 03:40:00,-999.0,-99.9,29.83,North,-999,-999.0,-999.0,-999,0.00,,,0.00,weatherlink.com 1.10,2013-01-20 08:40:00,
2013-01-20 03:55:00,-999.0,-99.9,29.83,North,-999,-999.0,-999.0,-999,0.00,,,0.00,weatherlink.com 1.10,2013-01-20 08:55:00,
2013-01-20 04:10:00,-999.0,-99.9,29.83,North,-999,-999.0,-999.0,-999,0.00,,,0.00,weatherlink.com 1.10,2013-01-20 09:10:00,
2013-01-20 04:25:00,-999.0,-99.9,29.82,North,-999,-999.0,-999.0,-999,0.00,,,0.00,weatherlink.com 1.10,2013-01-20 09:25:00,
2013-01-20 04:40:00,-999.0,-99.9,29.81,North,-999,-999.0,-999.0,-999,0.00,,,0.00,weatherlink.com 1.10,2013-01-20 09:40:00,
2013-01-20 04:55:00,-999.0,-99.9,29.80,North,-999,-999.0,-999.0,-999,0.00,,,0.00,weatherlink.com 1.10,2013-01-20 09:55:00,
2013-01-20 05:10:00,-999.0,-99.9,29.80,North,-999,-999.0,-999.0,-999,0.00,,,0.00,weatherlink.com 1.10,2013-01-20 10:10:00,
2013-01-20 05:25:00,-999.0,-99.9,29.78,North,-999,-999.0,-999.0,-999,0.00,,,0.00,weatherlink.com 1.10,2013-01-20 10:25:00,
2013-01-20 05:40:00,-999.0,-99.9,29.77,North,-999,-999.0,-999.0,-999,0.00,,,0.00,weatherlink.com 1.10,2013-01-20 10:40:00,
2013-01-20 05:55:00,-999.0,-99.9,29.77,North,-999,-999.0,-999.0,-999,0.00,,,0.00,weatherlink.com 1.10,2013-01-20 10:55:00,
2013-01-20 06:10:00,-999.0,-99.9,29.75,North,-999,-999.0,-999.0,-999,0.00,,,0.00,weatherlink.com 1.10,2013-01-20 11:10:00,
2013-01-20 06:25:00,-999.0,-99.9,29.75,North,-999,-999.0,-999.0,-999,0.00,,,0.00,weatherlink.com 1.10,2013-01-20 11:25:00,
2013-01-20 06:41:00,-999.0,-99.9,29.74,North,-999,-999.0,-999.0,-999,0.00,,,0.00,weatherlink.com 1.10,2013-01-20 11:41:00,
2013-01-20 06:56:00,-999.0,-99.9,29.74,North,-999,-999.0,-999.0,-999,0.00,,,0.00,weatherlink.com 1.10,2013-01-20 11:56:00,
2013-01-20 07:26:00,-999.0,-99.9,29.74,North,-999,-999.0,-999.0,-999,0.00,,,0.00,weatherlink.com 1.10,2013-01-20 12:26:00,
2013-01-20 07:41:00,43.3,39.0,29.74,West,277,6.0,8.0,83,0.00,,,0.00,weatherlink.com 1.10,2013-01-20 12:41:00,
2013-01-20 07:56:00,43.4,39.0,29.73,NW,319,4.0,9.0,83,0.00,,,0.00,weatherlink.com 1.10,2013-01-20 12:56:00,
2013-01-20 08:11:00,43.7,39.0,29.72,NW,304,4.0,7.0,83,0.00,,,0.00,weatherlink.com 1.10,2013-01-20 13:11:00,
2013-01-20 08:26:00,44.1,39.0,29.73,West,273,4.0,8.0,82,0.00,,,0.00,weatherlink.com 1.10,2013-01-20 13:26:00,
2013-01-20 08:56:00,44.8,39.0,29.73,WNW,298,5.0,8.0,81,0.00,,,0.00,weatherlink.com 1.10,2013-01-20 13:56:00,
2013-01-20 09:11:00,45.1,39.0,29.73,West,281,9.0,11.0,79,0.00,,,0.00,weatherlink.com 1.10,2013-01-20 14:11:00,
2013-01-20 09:26:00,45.3,39.0,29.73,WNW,294,8.0,10.0,79,0.00,,,0.00,weatherlink.com 1.10,2013-01-20 14:26:00,
2013-01-20 09:41:00,45.7,39.0,29.73,West,277,6.0,10.0,78,0.00,,,0.00,weatherlink.com 1.10,2013-01-20 14:41:00,
2013-01-20 09:56:00,46.2,40.0,29.74,WNW,290,4.0,9.0,78,0.00,,,0.00,weatherlink.com 1.10,2013-01-20 14:56:00,
2013-01-20 10:11:00,47.2,39.0,29.73,WNW,291,5.0,9.0,74,0.00,,,0.00,weatherlink.com 1.10,2013-01-20 15:11:00,
2013-01-20 10:26:00,47.7,39.0,29.73,West,277,5.0,11.0,73,0.00,,,0.00,weatherlink.com 1.10,2013-01-20 15:26:00,
2013-01-20 10:41:00,48.5,39.0,29.72,WNW,290,7.0,14.0,69,0.00,,,0.00,weatherlink.com 1.10,2013-01-20 15:41:00,
2013-01-20 10:56:00,48.5,39.0,29.71,NW,312,5.0,10.0,70,0.00,,,0.00,weatherlink.com 1.10,2013-01-20 15:56:00,
2013-01-20 11:11:00,49.5,39.0,29.70,WNW,283,5.0,10.0,68,0.00,,,0.00,weatherlink.com 1.10,2013-01-20 16:11:00,
2013-01-20 11:26:00,50.4,39.0,29.68,WNW,300,6.0,15.0,64,0.00,,,0.00,weatherlink.com 1.10,2013-01-20 16:26:00,
2013-01-20 11:41:00,49.3,39.0,29.67,NW,308,6.0,10.0,68,0.00,,,0.00,weatherlink.com 1.10,2013-01-20 16:41:00,
2013-01-20 11:56:00,49.9,39.0,29.66,West,273,6.0,11.0,66,0.00,,,0.00,weatherlink.com 1.10,2013-01-20 16:56:00,
2013-01-20 12:11:00,49.4,40.0,29.65,WNW,294,8.0,12.0,69,0.00,,,0.00,weatherlink.com 1.10,2013-01-20 17:11:00,
2013-01-20 12:26:00,49.5,40.0,29.65,WNW,293,6.0,11.0,69,0.00,,,0.00,weatherlink.com 1.10,2013-01-20 17:26:00,
2013-01-20 12:42:00,52.5,37.0,29.64,North,357,10.0,19.0,55,0.00,,,0.00,weatherlink.com 1.10,2013-01-20 17:42:00,
2013-01-20 12:57:00,52.9,36.0,29.64,NW,309,8.0,23.0,54,0.00,,,0.00,weatherlink.com 1.10,2013-01-20 17:57:00,
2013-01-20 13:12:00,53.2,36.0,29.64,WNW,286,6.0,22.0,53,0.00,,,0.00,weatherlink.com 1.10,2013-01-20 18:12:00,
2013-01-20 13:27:00,52.6,35.0,29.64,WNW,303,8.0,22.0,52,0.00,,,0.00,weatherlink.com 1.10,2013-01-20 18:27:00,
2013-01-20 13:42:00,52.4,36.0,29.64,NW,312,9.0,16.0,53,0.00,,,0.00,weatherlink.com 1.10,2013-01-20 18:42:00,
2013-01-20 13:57:00,51.7,34.0,29.64,WNW,300,12.0,27.0,52,0.00,,,0.00,weatherlink.com 1.10,2013-01-20 18:57:00,
2013-01-20 14:12:00,51.5,34.0,29.64,WNW,291,13.0,21.0,52,0.00,,,0.00,weatherlink.com 1.10,2013-01-20 19:12:00,
2013-01-20 14:27:00,50.8,34.0,29.65,NW,308,8.0,18.0,54,0.00,,,0.00,weatherlink.com 1.10,2013-01-20 19:27:00,
2013-01-20 14:42:00,50.6,35.0,29.64,WNW,301,8.0,20.0,55,0.00,,,0.00,weatherlink.com 1.10,2013-01-20 19:42:00,
2013-01-20 14:57:00,50.0,34.0,29.66,NW,326,8.0,19.0,55,0.00,,,0.00,weatherlink.com 1.10,2013-01-20 19:57:00,
2013-01-20 15:12:00,49.4,35.0,29.66,WNW,285,5.0,18.0,58,0.00,,,0.00,weatherlink.com 1.10,2013-01-20 20:12:00,
2013-01-20 15:27:00,48.4,36.0,29.67,NW,304,7.0,14.0,62,0.00,,,0.00,weatherlink.com 1.10,2013-01-20 20:27:00,
2013-01-20 15:42:00,47.8,36.0,29.68,NW,314,11.0,17.0,63,0.00,,,0.00,weatherlink.com 1.10,2013-01-20 20:42:00,
2013-01-20 15:57:00,47.5,35.0,29.68,NW,315,6.0,14.0,62,0.00,,,0.00,weatherlink.com 1.10,2013-01-20 20:57:00,
2013-01-20 16:12:00,48.2,33.0,29.69,WNW,297,6.0,14.0,57,0.00,,,0.00,weatherlink.com 1.10,2013-01-20 21:12:00,
2013-01-20 16:27:00,47.6,33.0,29.70,NW,321,6.0,16.0,57,0.00,,,0.00,weatherlink.com 1.10,2013-01-20 21:27:00,
2013-01-20 16:42:00,46.9,33.0,29.70,West,274,6.0,12.0,60,0.00,,,0.00,weatherlink.com 1.10,2013-01-20 21:42:00,
2013-01-20 16:57:00,46.9,33.0,29.71,WNW,300,5.0,12.0,59,0.00,,,0.00,weatherlink.com 1.10,2013-01-20 21:57:00,
2013-01-20 17:12:00,46.0,36.0,29.72,WNW,302,7.0,10.0,67,0.00,,,0.00,weatherlink.com 1.10,2013-01-20 22:12:00,
2013-01-20 17:27:00,45.0,36.0,29.72,WNW,293,7.0,9.0,70,0.00,,,0.00,weatherlink.com 1.10,2013-01-20 22:27:00,
2013-01-20 17:42:00,44.5,36.0,29.74,NNW,329,3.0,8.0,73,0.00,,,0.00,weatherlink.com 1.10,2013-01-20 22:42:00,
2013-01-20 18:12:00,45.5,26.0,29.76,West,263,6.0,11.0,46,0.00,,,0.00,weatherlink.com 1.10,2013-01-20 23:12:00,
2013-01-20 18:27:00,45.6,25.0,29.77,WNW,288,3.0,9.0,44,0.00,,,0.00,weatherlink.com 1.10,2013-01-20 23:27:00,
2013-01-20 18:42:00,43.7,22.0,29.79,WNW,285,4.0,7.0,42,0.00,,,0.00,weatherlink.com 1.10,2013-01-20 23:42:00,
2013-01-20 18:57:00,42.2,23.0,29.80,NW,304,5.0,7.0,47,0.00,,,0.00,weatherlink.com 1.10,2013-01-20 23:57:00,
2013-01-20 19:12:00,41.2,22.0,29.81,WNW,283,6.0,10.0,46,0.00,,,0.00,weatherlink.com 1.10,2013-01-21 00:12:00,
2013-01-20 19:27:00,40.6,22.0,29.82,NNW,333,4.0,11.0,47,0.00,,,0.00,weatherlink.com 1.10,2013-01-21 00:27:00,
2013-01-20 19:42:00,39.7,21.0,29.83,WNW,302,4.0,9.0,48,0.00,,,0.00,weatherlink.com 1.10,2013-01-21 00:42:00,
2013-01-20 19:57:00,39.1,22.0,29.84,West,264,3.0,9.0,50,0.00,,,0.00,weatherlink.com 1.10,2013-01-21 00:57:00,
2013-01-20 20:12:00,38.5,22.0,29.85,WNW,292,4.0,9.0,52,0.00,,,0.00,weatherlink.com 1.10,2013-01-21 01:12:00,
2013-01-20 20:27:00,37.9,21.0,29.86,WNW,301,7.0,12.0,51,0.00,,,0.00,weatherlink.com 1.10,2013-01-21 01:27:00,
2013-01-20 20:43:00,37.2,20.0,29.88,WNW,300,6.0,13.0,51,0.00,,,0.00,weatherlink.com 1.10,2013-01-21 01:43:00,
2013-01-20 20:57:00,36.7,20.0,29.89,WNW,288,4.0,10.0,52,0.00,,,0.00,weatherlink.com 1.10,2013-01-21 01:57:00,
2013-01-20 21:12:00,36.0,21.0,29.90,WNW,291,2.0,10.0,54,0.00,,,0.00,weatherlink.com 1.10,2013-01-21 02:12:00,
2013-01-20 21:28:00,35.2,20.0,29.91,West,280,4.0,11.0,54,0.00,,,0.00,weatherlink.com 1.10,2013-01-21 02:28:00,
2013-01-20 21:43:00,34.5,19.0,29.92,West,264,4.0,9.0,54,0.00,,,0.00,weatherlink.com 1.10,2013-01-21 02:43:00,
2013-01-20 21:58:00,34.0,20.0,29.93,WNW,283,3.0,9.0,56,0.00,,,0.00,weatherlink.com 1.10,2013-01-21 02:58:00,
2013-01-20 22:13:00,33.6,19.0,29.93,West,276,4.0,11.0,56,0.00,,,0.00,weatherlink.com 1.10,2013-01-21 03:13:00,
2013-01-20 22:28:00,33.2,18.0,29.93,West,259,4.0,9.0,55,0.00,,,0.00,weatherlink.com 1.10,2013-01-21 03:28:00,
2013-01-20 22:43:00,32.8,18.0,29.94,NW,311,4.0,10.0,54,0.00,,,0.00,weatherlink.com 1.10,2013-01-21 03:43:00,
2013-01-20 22:58:00,32.4,18.0,29.94,WNW,290,6.0,10.0,55,0.00,,,0.00,weatherlink.com 1.10,2013-01-21 03:58:00,
2013-01-20 23:13:00,32.0,17.0,29.94,West,280,5.0,11.0,54,0.00,,,0.00,weatherlink.com 1.10,2013-01-21 04:13:00,
2013-01-20 23:28:00,31.9,17.0,29.95,WNW,283,7.0,10.0,55,0.00,,,0.00,weatherlink.com 1.10,2013-01-21 04:28:00,
2013-01-20 23:43:00,31.5,16.0,29.95,WNW,288,4.0,12.0,53,0.00,,,0.00,weatherlink.com 1.10,2013-01-21 04:43:00,
2013-01-20 23:58:00,31.2,16.0,29.96,WNW,297,6.0,11.0,54,0.00,,,0.00,weatherlink.com 1.10,2013-01-21 04:58:00,